�N����,����,�~����,�C��,���x,�C��,����,���ϕ���,�ő�u�ԕ���,�ő厞����,���˗�,�I�_���x,�n�����x,�ő啗���N��,DTYPE
"22/04/06","00:10",0.0,10.6,71.9,1016.4,321.0,2.2,3.4,318.9,0.00,5.8,13.2,"00:05:08",1
"22/04/06","00:20",0.0,10.5,72.1,1016.4,279.4,1.6,2.4,269.8,0.00,5.7,13.3,"00:19:12",1
"22/04/06","00:30",0.0,10.4,72.3,1016.4,298.4,2.1,3.1,300.8,0.00,5.7,13.1,"00:22:24",1
"22/04/06","00:40",0.0,10.2,72.3,1016.6,293.9,1.6,2.4,318.0,0.00,5.5,13.0,"00:30:08",1
"22/04/06","00:50",0.0,10.2,72.6,1016.4,281.8,1.7,2.4,291.9,0.00,5.5,13.1,"00:49:12",1
"22/04/06","01:00",0.0,10.1,72.7,1016.4,298.0,2.0,2.8,295.6,0.00,5.5,13.1,"00:58:08",1
"22/04/06","01:10",0.0,10.0,73.0,1016.6,301.8,2.1,2.6,325.1,0.00,5.4,13.1,"01:07:36",1
"22/04/06","01:20",0.0,9.9,73.3,1016.4,304.7,1.6,2.5,301.6,0.00,5.4,13.1,"01:10:16",1
"22/04/06","01:30",0.0,9.6,73.8,1016.4,302.8,1.6,2.4,266.4,0.00,5.2,12.9,"01:21:44",1
"22/04/06","01:40",0.0,9.7,74.3,1015.9,298.6,2.1,3.1,307.5,0.00,5.4,12.8,"01:30:56",1
"22/04/06","01:50",0.0,9.6,74.7,1015.9,294.0,2.1,3.5,323.1,0.00,5.4,12.9,"01:40:02",1
"22/04/06","02:00",0.0,9.7,74.8,1016.1,298.1,2.3,3.4,317.8,0.00,5.5,12.7,"01:50:08",1
"22/04/06","02:10",0.0,9.4,75.1,1016.6,291.8,1.8,2.7,322.9,0.00,5.3,12.9,"02:02:32",1
"22/04/06","02:20",0.0,9.3,75.5,1016.4,293.4,1.8,2.6,312.3,0.00,5.2,12.8,"02:18:56",1
"22/04/06","02:30",0.0,9.2,75.9,1016.6,306.9,1.8,2.1,311.6,0.00,5.2,12.7,"02:20:08",1
"22/04/06","02:40",0.0,9.3,76.1,1016.6,301.2,2.0,2.9,303.2,0.00,5.4,12.8,"02:37:28",1
"22/04/06","02:50",0.0,9.3,76.2,1016.6,309.9,2.0,2.6,317.1,0.00,5.4,12.5,"02:46:08",1
"22/04/06","03:00",0.0,9.3,76.3,1016.4,308.5,1.5,2.2,315.5,0.00,5.4,12.8,"02:58:16",1
"22/04/06","03:10",0.0,9.0,76.6,1016.4,303.5,1.7,2.7,307.8,0.00,5.2,12.7,"03:09:20",1
"22/04/06","03:20",0.0,9.0,76.7,1016.8,295.9,1.3,2.6,314.1,0.00,5.2,12.6,"03:10:32",1
"22/04/06","03:30",0.0,8.9,77.0,1016.4,328.6,1.6,2.1,333.4,0.00,5.1,12.4,"03:26:08",1
"22/04/06","03:40",0.0,8.5,77.3,1016.4,324.5,1.3,1.9,330.2,0.00,4.8,12.3,"03:31:36",1
"22/04/06","03:50",0.0,8.3,77.9,1016.1,297.9,1.5,2.2,305.2,0.00,4.7,12.3,"03:44:16",1
"22/04/06","04:00",0.0,8.1,78.5,1015.9,316.3,1.6,2.0,329.2,0.00,4.6,12.4,"03:55:28",1
"22/04/06","04:10",0.0,7.9,79.5,1016.1,308.6,1.7,2.6,320.6,0.00,4.6,12.5,"04:08:16",1
"22/04/06","04:20",0.0,7.9,80.2,1015.4,305.8,2.2,3.3,301.9,0.00,4.7,12.3,"04:12:32",1
"22/04/06","04:30",0.0,7.9,80.7,1015.9,299.4,2.1,2.7,329.2,0.00,4.8,12.2,"04:29:44",1
"22/04/06","04:40",0.0,7.8,81.0,1015.6,290.9,2.0,2.8,313.0,0.00,4.8,12.2,"04:31:52",1
"22/04/06","04:50",0.0,7.8,81.3,1015.6,290.6,2.0,2.8,317.7,0.00,4.8,12.2,"04:48:32",1
"22/04/06","05:00",0.0,7.8,81.2,1015.9,312.8,2.2,3.4,311.2,0.00,4.8,12.0,"04:51:28",1
"22/04/06","05:10",0.0,7.7,81.3,1016.1,309.4,1.8,2.7,333.1,0.00,4.7,12.2,"05:04:08",1
"22/04/06","05:20",0.0,7.8,81.5,1015.9,281.1,1.6,2.0,269.7,0.00,4.9,12.1,"05:14:00",1
"22/04/06","05:30",0.0,7.9,81.5,1016.4,296.3,1.8,2.4,306.8,0.00,5.0,12.0,"05:26:16",1
"22/04/06","05:40",0.0,7.6,81.5,1016.4,324.4,1.6,2.1,329.2,0.00,4.7,12.1,"05:37:44",1
"22/04/06","05:50",0.0,7.2,82.1,1016.1,309.7,1.7,2.4,321.8,0.00,4.4,11.9,"05:44:48",1
"22/04/06","06:00",0.0,6.7,82.7,1016.1,298.5,1.1,2.0,326.8,0.00,4.0,11.9,"05:50:08",1
"22/04/06","06:10",0.0,6.6,83.4,1015.9,295.5,1.5,2.2,324.0,0.00,4.0,12.0,"06:08:32",1
"22/04/06","06:20",0.0,6.7,84.1,1015.6,317.5,1.6,2.0,321.2,0.00,4.2,11.6,"06:14:32",1
"22/04/06","06:30",0.0,6.8,84.8,1015.6,286.7,1.5,2.0,319.9,0.00,4.5,11.8,"06:29:52",1
"22/04/06","06:40",0.0,7.0,85.4,1015.9,313.9,1.7,2.4,322.4,0.00,4.8,11.7,"06:31:36",1
"22/04/06","06:50",0.0,7.1,85.9,1015.6,288.7,1.1,1.8,303.8,0.01,4.9,11.8,"06:42:32",1
"22/04/06","07:00",0.0,7.5,86.5,1015.6,314.6,1.7,2.5,326.0,0.02,5.4,11.6,"06:57:52",1
"22/04/06","07:10",0.0,8.4,86.8,1015.9,302.4,1.6,2.6,320.6,0.04,6.4,11.7,"07:08:48",1
"22/04/06","07:20",0.0,9.1,86.6,1016.4,319.7,2.0,2.7,329.7,0.06,7.0,11.6,"07:12:08",1
"22/04/06","07:30",0.0,10.2,86.1,1016.4,300.0,1.3,2.5,314.4,0.09,8.0,11.6,"07:24:00",1
"22/04/06","07:40",0.0,11.6,84.7,1016.6,298.4,1.0,1.4,322.5,0.12,9.2,11.6,"07:36:56",1
"22/04/06","07:50",0.0,12.1,81.7,1016.8,229.9,0.3,0.8,280.1,0.13,9.1,11.7,"07:42:40",1
"22/04/06","08:00",0.0,12.8,78.1,1016.8,228.1,0.3,0.8,233.5,0.15,9.1,11.8,"07:50:16",1
"22/04/06","08:10",0.0,13.5,71.8,1016.8,178.3,0.6,1.4,127.1,0.17,8.6,11.7,"08:09:52",1
"22/04/06","08:20",0.0,13.9,67.3,1017.1,126.4,0.6,1.6,110.2,0.20,8.0,11.9,"08:15:20",1
"22/04/06","08:30",0.0,14.1,66.6,1017.1,161.9,1.0,2.6,152.6,0.23,8.0,11.8,"08:22:00",1
"22/04/06","08:40",0.0,14.5,64.8,1017.1,141.5,1.0,1.8,194.5,0.26,8.0,11.7,"08:35:04",1
"22/04/06","08:50",0.0,14.9,63.3,1016.8,173.5,1.0,2.2,237.6,0.29,8.0,11.7,"08:43:28",1
"22/04/06","09:00",0.0,15.2,62.7,1016.8,165.7,1.1,2.1,116.6,0.32,8.2,11.7,"08:57:36",1
"22/04/06","09:10",0.0,15.5,62.0,1016.4,125.9,1.0,2.7,132.7,0.34,8.3,11.8,"09:04:32",1
"22/04/06","09:20",0.0,15.7,60.4,1016.4,121.1,1.0,2.5,113.8,0.37,8.1,12.0,"09:13:36",1
"22/04/06","09:30",0.0,16.5,59.6,1016.4,276.5,0.6,1.7,343.9,0.39,8.7,11.9,"09:23:44",1
"22/04/06","09:40",0.0,17.0,58.9,1016.1,249.0,1.1,2.1,116.7,0.42,9.0,11.9,"09:30:32",1
"22/04/06","09:50",0.0,17.3,58.5,1015.9,187.5,1.1,2.6,196.7,0.44,9.1,11.9,"09:41:52",1
"22/04/06","10:00",0.0,17.6,55.4,1015.9,198.9,1.1,3.2,215.7,0.46,8.6,12.2,"09:54:24",1
"22/04/06","10:10",0.0,17.8,55.2,1015.9,145.3,1.7,3.6,159.2,0.48,8.7,12.4,"10:04:16",1
"22/04/06","10:20",0.0,17.9,54.8,1015.6,168.2,2.1,4.7,130.0,0.50,8.7,12.3,"10:17:12",1
"22/04/06","10:30",0.0,18.1,54.9,1015.4,193.6,1.8,3.6,163.8,0.52,8.9,12.3,"10:20:16",1
"22/04/06","10:40",0.0,18.3,54.4,1015.6,147.2,1.7,4.1,132.3,0.42,9.0,12.3,"10:33:04",1
"22/04/06","10:50",0.0,18.4,53.9,1015.4,143.4,2.1,3.5,123.3,0.51,8.9,12.4,"10:44:24",1
"22/04/06","11:00",0.0,18.6,53.0,1015.4,165.7,2.5,4.9,148.7,0.49,8.9,12.6,"10:57:20",1
"22/04/06","11:10",0.0,18.7,53.3,1015.2,178.1,2.6,4.5,171.0,0.51,9.1,12.7,"11:02:08",1
"22/04/06","11:20",0.0,19.0,51.3,1015.2,152.9,2.7,5.0,133.7,0.56,8.8,12.7,"11:14:08",1
"22/04/06","11:30",0.0,19.2,52.1,1014.7,170.1,2.8,4.9,217.5,0.55,9.2,12.8,"11:23:12",1
"22/04/06","11:40",0.0,19.4,52.1,1014.9,150.2,2.8,4.8,112.8,0.55,9.4,13.0,"11:32:56",1
"22/04/06","11:50",0.0,19.7,51.4,1014.5,177.9,2.8,4.4,176.4,0.62,9.4,12.8,"11:48:08",1
"22/04/06","12:00",0.0,20.1,51.7,1014.2,148.2,2.8,5.5,142.7,0.60,9.9,13.2,"11:54:40",1
"22/04/06","12:10",0.0,20.0,49.5,1014.2,168.6,2.6,4.8,153.0,0.56,9.2,13.3,"12:06:40",1
"22/04/06","12:20",0.0,20.5,48.2,1014.2,157.3,2.0,4.5,192.0,0.57,9.2,13.1,"12:12:40",1
"22/04/06","12:30",0.0,21.1,46.1,1014.0,150.2,2.3,4.7,141.5,0.61,9.1,13.3,"12:28:48",1
"22/04/06","12:40",0.0,21.1,45.7,1013.8,171.3,2.6,4.4,202.6,0.60,9.0,13.4,"12:32:16",1
"22/04/06","12:50",0.0,21.0,44.9,1013.8,121.4,3.2,5.2,123.7,0.60,8.6,13.6,"12:43:20",1
"22/04/06","13:00",0.0,21.3,40.8,1013.5,142.0,3.1,5.5,141.9,0.59,7.5,13.7,"12:55:52",1
"22/04/06","13:10",0.0,21.9,41.2,1013.0,148.0,2.7,5.0,212.2,0.59,8.2,13.8,"13:06:40",1
"22/04/06","13:20",0.0,21.8,38.5,1013.0,156.9,2.8,6.0,152.2,0.59,7.1,13.9,"13:19:20",1
"22/04/06","13:30",0.0,21.4,37.3,1013.0,154.3,4.0,6.2,156.0,0.58,6.3,14.0,"13:21:44",1
"22/04/06","13:40",0.0,21.7,38.7,1012.8,152.3,3.7,7.9,151.1,0.57,7.1,14.3,"13:31:04",1
"22/04/06","13:50",0.0,21.5,38.9,1012.3,151.8,3.4,6.4,128.3,0.55,7.0,14.2,"13:47:28",1
"22/04/06","14:00",0.0,21.9,38.1,1012.3,153.6,2.5,5.1,141.3,0.54,7.0,14.2,"13:53:28",1
"22/04/06","14:10",0.0,21.9,38.7,1012.3,174.6,3.1,5.2,195.5,0.52,7.3,14.6,"14:01:36",1
"22/04/06","14:20",0.0,22.3,37.7,1011.6,166.4,2.5,5.0,191.8,0.50,7.2,14.4,"14:10:16",1
"22/04/06","14:30",0.0,22.3,36.1,1011.9,169.1,2.3,4.4,159.6,0.49,6.6,14.6,"14:25:36",1
"22/04/06","14:40",0.0,22.1,35.5,1011.9,187.3,2.6,5.7,233.2,0.46,6.2,14.7,"14:36:16",1
"22/04/06","14:50",0.0,21.8,35.3,1011.9,165.3,3.5,6.5,170.0,0.45,5.8,14.7,"14:48:40",1
"22/04/06","15:00",0.0,22.2,37.3,1011.6,161.7,2.8,4.8,189.4,0.44,7.0,15.0,"14:50:40",1
"22/04/06","15:10",0.0,22.0,36.8,1011.4,151.7,2.5,5.2,125.2,0.42,6.6,14.9,"15:01:12",1
"22/04/06","15:20",0.0,22.3,39.5,1011.2,173.8,2.6,5.4,143.0,0.40,7.9,15.2,"15:18:16",1
"22/04/06","15:30",0.0,22.4,37.2,1011.2,198.3,2.3,5.1,238.8,0.37,7.1,15.1,"15:27:36",1
"22/04/06","15:40",0.0,22.7,38.7,1010.9,173.0,2.0,4.2,117.7,0.35,8.0,15.1,"15:34:24",1
"22/04/06","15:50",0.0,22.5,36.7,1010.7,179.5,2.2,5.1,186.7,0.31,7.0,15.2,"15:40:02",1
"22/04/06","16:00",0.0,22.1,35.8,1011.2,201.8,2.7,4.7,193.6,0.28,6.3,15.1,"15:52:40",1
"22/04/06","16:10",0.0,21.9,34.3,1010.9,201.4,3.1,4.4,229.2,0.27,5.5,15.3,"16:01:12",1
"22/04/06","16:20",0.0,21.8,32.1,1010.9,195.3,3.1,5.6,154.4,0.26,4.5,15.3,"16:11:52",1
"22/04/06","16:30",0.0,22.0,30.4,1010.9,200.0,2.5,4.1,175.9,0.23,3.9,15.4,"16:26:24",1
"22/04/06","16:40",0.0,22.2,30.6,1011.2,227.2,1.7,3.4,231.6,0.19,4.1,15.2,"16:36:24",1
"22/04/06","16:50",0.0,21.9,31.0,1011.2,189.3,1.7,3.3,152.5,0.18,4.1,15.3,"16:48:16",1
"22/04/06","17:00",0.0,21.8,28.7,1011.4,204.5,1.7,4.7,133.6,0.14,2.9,15.6,"16:52:56",1
"22/04/06","17:10",0.0,21.8,29.2,1011.2,242.5,1.6,3.6,244.3,0.12,3.1,15.4,"17:02:40",1
"22/04/06","17:20",0.0,21.8,28.9,1011.6,197.4,1.1,2.9,244.6,0.10,3.0,15.4,"17:10:08",1
"22/04/06","17:30",0.0,21.2,27.3,1011.4,221.1,1.0,2.1,236.6,0.07,1.7,15.6,"17:20:08",1
"22/04/06","17:40",0.0,21.2,26.8,1011.6,5.8,1.7,3.4,348.0,0.06,1.4,15.6,"17:38:40",1
"22/04/06","17:50",0.0,20.3,43.0,1011.9,333.7,3.5,5.8,350.5,0.05,7.4,15.5,"17:49:20",1
"22/04/06","18:00",0.0,18.9,49.1,1011.9,352.0,3.6,6.3,334.8,0.03,8.0,15.3,"17:57:44",1
"22/04/06","18:10",0.0,18.2,52.8,1012.3,347.6,3.4,5.8,323.8,0.02,8.5,15.3,"18:03:36",1
"22/04/06","18:20",0.0,17.7,54.4,1012.3,353.9,3.5,5.8,334.5,0.01,8.4,15.2,"18:12:48",1
"22/04/06","18:30",0.0,17.2,55.9,1012.6,346.6,3.6,5.5,344.7,0.01,8.4,15.3,"18:21:28",1
"22/04/06","18:40",0.0,16.7,57.5,1012.8,346.9,4.1,6.8,341.4,0.00,8.3,15.2,"18:35:36",1
"22/04/06","18:50",0.0,16.2,59.2,1013.0,345.7,4.0,7.4,356.0,0.00,8.3,15.2,"18:40:32",1
"22/04/06","19:00",0.0,15.7,61.3,1013.0,344.2,4.2,8.0,347.9,0.00,8.3,15.3,"18:55:44",1
"22/04/06","19:10",0.0,15.3,63.2,1013.5,345.6,4.2,7.5,340.4,0.00,8.4,15.2,"19:06:36",1
"22/04/06","19:20",0.0,15.0,64.9,1013.8,336.9,5.5,9.3,315.8,0.00,8.5,15.2,"19:13:16",1
"22/04/06","19:30",0.0,14.7,66.0,1013.8,339.0,5.1,8.1,331.1,0.00,8.5,15.2,"19:25:02",1
"22/04/06","19:40",0.0,14.6,66.6,1013.8,333.7,5.5,9.7,347.0,0.00,8.5,15.2,"19:31:18",1
"22/04/06","19:50",0.0,14.5,66.9,1014.0,327.1,5.4,8.7,333.7,0.00,8.5,14.9,"19:42:40",1
"22/04/06","20:00",0.0,14.5,67.2,1014.5,331.2,5.5,9.1,328.7,0.00,8.5,15.0,"19:50:40",1
"22/04/06","20:10",0.0,14.3,67.9,1014.9,333.1,4.2,7.7,340.7,0.00,8.5,14.8,"20:04:46",1
"22/04/06","20:20",0.0,14.2,68.6,1014.9,336.8,3.7,6.2,347.2,0.00,8.6,15.0,"20:15:18",1
"22/04/06","20:30",0.0,14.2,68.7,1014.9,346.8,3.4,6.2,336.0,0.00,8.6,14.6,"20:20:30",1
"22/04/06","20:40",0.0,14.0,69.1,1015.2,337.9,2.6,4.4,340.8,0.00,8.5,14.7,"20:33:18",1
"22/04/06","20:50",0.0,13.8,69.5,1015.4,338.5,1.7,3.3,325.5,0.00,8.4,14.7,"20:42:48",1
"22/04/06","21:00",0.0,13.4,70.0,1015.4,326.4,1.3,2.1,301.8,0.00,8.1,14.8,"20:59:26",1
"22/04/06","21:10",0.0,12.9,70.8,1015.6,292.2,1.6,1.8,303.2,0.00,7.8,14.6,"21:00:24",1
"22/04/06","21:20",0.0,12.6,71.7,1015.6,310.7,1.8,2.2,312.0,0.00,7.7,14.6,"21:15:40",1
"22/04/06","21:30",0.0,12.3,72.8,1015.9,311.1,2.0,3.1,306.9,0.00,7.6,14.5,"21:26:00",1
"22/04/06","21:40",0.0,12.2,74.2,1015.9,338.2,2.7,3.6,344.3,0.00,7.8,14.3,"21:31:22",1
"22/04/06","21:50",0.0,12.0,75.4,1015.6,337.3,2.3,3.2,341.8,0.00,7.8,14.3,"21:40:08",1
"22/04/06","22:00",0.0,12.0,76.4,1016.1,320.7,2.5,3.1,312.5,0.00,8.0,14.4,"21:53:04",1
"22/04/06","22:10",0.0,12.2,76.9,1015.6,315.7,2.5,3.7,332.8,0.00,8.3,14.2,"22:06:38",1
"22/04/06","22:20",0.0,11.8,77.6,1015.6,335.6,2.5,3.5,336.6,0.00,8.1,14.2,"22:12:50",1
"22/04/06","22:30",0.0,11.7,78.6,1015.6,331.0,2.7,3.6,321.6,0.00,8.1,14.1,"22:28:00",1
"22/04/06","22:40",0.0,11.5,79.0,1015.6,332.6,2.8,3.7,340.4,0.00,8.0,14.2,"22:39:12",1
"22/04/06","22:50",0.0,11.2,80.2,1015.6,334.7,3.1,4.9,327.5,0.00,8.0,14.0,"22:49:44",1
"22/04/06","23:00",0.0,11.8,80.5,1015.6,327.3,3.7,4.9,306.9,0.00,8.6,13.9,"22:56:10",1
"22/04/06","23:10",0.0,11.9,80.2,1015.4,325.1,4.0,5.9,316.7,0.00,8.6,14.1,"23:02:40",1
"22/04/06","23:20",0.0,11.7,80.5,1015.4,331.4,3.9,5.9,321.3,0.00,8.5,14.0,"23:16:40",1
"22/04/06","23:30",0.0,11.6,80.8,1015.4,332.7,3.7,5.0,332.6,0.00,8.5,14.1,"23:21:28",1
"22/04/06","23:40",0.0,11.5,81.3,1015.4,331.7,3.6,5.1,324.5,0.00,8.5,13.8,"23:35:12",1
"22/04/06","23:50",0.0,11.2,81.9,1014.9,334.5,3.0,4.2,333.0,0.00,8.3,13.7,"23:47:20",1
"22/04/06","24:00",0.0,11.4,82.1,1014.9,332.3,3.9,5.4,317.2,0.00,8.5,13.9,"23:52:00",1
